Location: Frankville (historical)
(38.3686°N, 99.9851°W)
Time: 02:30:41
(UTC+00:00)

Daily predictions for brighter satellites

Satellite Brightness Start Highest point End
(mag) Time Altitude Azimuth Time Altitude Azimuth Time Altitude Azimuth
Cosmos 1939 Rocket 3.9 00:02:59 10° ESE 00:06:02 22° ENE 00:09:06 10° NNE
FengYun 1-2 T 4.4 00:02:11 10° SSE 00:07:33 52° ENE 00:12:53 10° N
Cosmos 2366 rocket 4.3 00:01:43 10° N 00:07:33 42° ENE 00:13:18 10° SSE
USA 81 4.3 00:02:59 10° N 00:08:03 45° E 00:13:04 10° SSE
Cosmos 1356 3.3 00:05:24 10° N 00:08:51 90° E 00:12:15 10° S
ADEOS Rocket 4.4 00:01:43 10° N 00:09:11 53° WNW 00:16:33 10° SW
CREW DRAGON DEMO-1 DEB 3.0 00:07:12 10° NW 00:10:05 45° NE 00:12:54 10° ESE
H-2A R/B 3.7 00:10:50 12° ENE 00:10:50 12° ENE 00:12:42 10° NE
Cosmos 44 3.7 00:07:33 10° NNW 00:12:44 49° NE 00:17:57 10° SE
NOAA 12 4.2 00:11:16 10° SSE 00:16:35 89° WSW 00:21:57 10° NNW
YAOGAN 6 4.1 00:16:59 10° S 00:20:26 40° W 00:23:53 10° NNW
YAOGAN 1 4.4 00:22:49 13° NE 00:22:49 13° NE 00:23:40 10° NNE
NOSS 3-2 (A) 4.4 00:19:41 10° SSE 00:23:52 23° ESE 00:26:19 17° ENE
Cosmos 2297 3.6 00:18:21 10° NNW 00:24:02 70° ENE 00:29:44 10° SSE
SL-16 R/B 2.7 00:20:06 10° SSW 00:25:41 63° WNW 00:31:19 10° NNE
Cosmos 1470 Rocket 3.8 00:25:32 10° N 00:29:39 42° E 00:33:45 10° SSE
BREEZE-M DEB (TANK) 3.1 00:25:26 10° SW 00:29:57 36° SSE 00:31:23 23° E
Cosmos 2228 Rocket 4.3 00:28:02 10° SE 00:31:35 23° E 00:32:19 22° ENE
Sich 1 4.3 00:28:01 10° NNW 00:32:11 44° W 00:36:17 10° SSW
Cosmos 1515 Rocket 3.7 00:28:50 10° SSE 00:33:01 49° E 00:37:16 10° NNE
Cosmos 1151 Rocket 3.3 00:32:33 10° SSW 00:36:49 69° W 00:41:04 10° N
Cosmos 1812 4.2 00:33:56 10° SE 00:35:56 20° ESE 00:35:56 20° ESE
Cosmos 1933 4.3 00:33:41 10° SSW 00:37:35 48° W 00:41:32 10° N
COSMO-SKYMED 1 2.5 00:35:18 10° NNE 00:39:39 67° ESE 00:43:56 10° S
USA 215 3.2 00:34:27 15° NE 00:40:05 88° SE 00:46:38 10° SW
Cosmos 1782 2.6 00:37:05 10° S 00:41:00 79° E 00:44:59 10° N
USA 238 DEB 4.4 00:35:30 10° S 00:41:04 31° ESE 00:43:44 23° ENE
USA 238 4.4 00:35:37 10° S 00:41:11 31° ESE 00:43:47 23° ENE
Cosmos 1538 Rocket 4.0 00:38:22 10° S 00:43:41 74° ESE 00:48:49 11° NNE
MOS 1 Rocket 4.1 00:40:37 14° NNE 00:44:53 38° E 00:49:49 10° SSE
Cosmos 1602 3.6 00:41:51 10° N 00:45:45 68° E 00:49:35 10° SSE
CZ-2D R/B 3.4 00:43:11 10° SSE 00:46:50 47° ENE 00:50:32 10° N
Cosmos 864 Rocket 4.5 00:45:12 10° N 00:51:31 88° W 00:57:45 10° S
Nadezhda 3 Rocket 4.2 00:46:54 10° SSE 00:52:56 48° E 00:59:01 10° NNE
SL-8 Rocket 4.4 00:47:16 10° NNW 00:53:27 65° W 00:59:38 10° S
X-37B 1.0 00:50:21 10° W 00:53:27 53° NNW 00:53:55 47° NNE
SL-24 R/B 3.5 00:50:57 16° NNE 00:54:00 84° ESE 00:57:38 10° S
Cosmos 2285 Rocket 4.2 00:51:14 10° NNW 00:57:37 75° WSW 01:03:54 10° S
FALCON 9 R/B 1.3 00:56:33 10° WSW 00:58:37 37° S 00:58:37 37° S
Okean-O 2.8 00:54:42 10° SE 00:58:56 47° ENE 01:03:11 10° N
Cosmos 1933 Rocket 3.5 00:55:34 10° N 01:00:01 64° E 01:04:25 10° SSE
Cosmos 546 4.5 00:58:22 10° SW 01:02:12 90° NW 01:02:50 60° NE
Okean O Rocket 3.8 00:58:41 10° SSW 01:02:24 28° W 01:06:10 10° NW
Lacrosse 5 rocket 3.4 01:01:23 10° WNW 01:03:31 15° NNW 01:05:01 12° N
SWAS 4.3 00:59:23 10° SSW 01:03:37 74° ESE 01:04:47 46° NE
SAR-Lupe-4 4.0 01:01:48 18° N 01:04:17 60° WNW 01:07:48 10° SSW
Meteor 1-14 Rocket 4.3 01:00:36 10° N 01:06:36 84° E 01:12:35 10° S
Cosmos 1689 Rocket 2.3 01:06:56 65° W 01:06:56 65° W 01:09:46 10° SSW
Cosmos 1821 Rocket 4.0 01:02:21 10° N 01:08:29 55° E 01:14:40 10° SSE
USA 267 3.9 01:09:12 32° NE 01:10:33 35° NNE 01:16:21 10° NNW
Meteor 1-4 Rocket 4.2 01:08:23 10° SW 01:11:41 33° WNW 01:14:56 10° NNW
SL-24 DEB 4.5 01:08:56 10° N 01:13:39 70° W 01:18:19 10° SSW
BREEZE-M DEB (TANK) 3.5 01:04:49 10° WSW 01:14:59 74° NW 01:16:03 50° NNE
NOAA 15 4.5 01:10:38 10° SSE 01:15:52 65° ENE 01:21:06 10° N
USA 281 3.1 01:11:20 10° SE 01:17:47 65° ENE 01:24:17 10° NNW
CZ-2C R/B 2.8 01:13:03 10° SSE 01:18:10 77° ENE 01:23:04 10° N
DMSP B5D1-3 4.4 01:18:15 53° ENE 01:19:06 61° E 01:24:09 10° S
Cosmos 1603 3.6 01:15:14 10° SSW 01:20:52 84° WNW 01:23:33 33° NNE
CZ-4B R/B 4.3 01:19:18 10° NW 01:21:02 14° WNW 01:22:46 10° WSW
Meteor 1-5 Rocket 4.1 01:20:28 10° N 01:26:22 73° E 01:32:05 10° SSE
Cosmos 1943 3.1 01:21:31 10° SSW 01:27:11 86° WNW 01:29:17 41° NNE
Meteor 1-10 Rocket 4.1 01:23:41 10° S 01:29:22 81° E 01:31:27 41° NNE
Cosmos 2369 Rocket 2.1 01:28:29 10° NNW 01:34:12 88° WSW 01:37:02 31° SSE
CZ-4 R/B 3.7 01:33:28 10° S 01:40:23 16° NNW 01:41:16 10° NNW
Cosmos 1943 Rocket 3.4 01:40:32 10° NW 01:45:42 40° WSW 01:50:53 10° S
NOSS 3-2 (C) 3.8 01:41:24 10° SSW 01:45:16 45° S 01:45:16 45° S
CZ-3B R/B 4.4 01:45:27 10° W 01:45:50 12° W 01:45:50 12° W
CENTAUR R/B 2.6 01:42:47 10° SSW 01:47:09 52° SSE 01:47:09 52° SSE
Cosmos 923 Rocket 4.2 01:44:08 10° SSW 01:49:17 65° WNW 01:49:34 64° NW
H-2A R/B 3.0 01:44:07 10° S 01:51:28 39° NNW 01:54:40 10° NNW
ATLAS CENTAUR R/B 4.2 01:43:50 10° NW 02:00:23 65° WSW 02:03:51 33° S
NOSS 3-2 (A) 4.0 02:08:40 10° SW 02:13:46 50° WNW 02:13:46 50° WNW
USA 215 4.4 02:21:48 31° NNW 02:22:36 31° NNW 02:28:10 10° W
USA 238 DEB 4.4 02:25:23 10° SW 02:31:13 47° WNW 02:31:13 47° WNW
USA 238 4.4 02:25:27 10° SW 02:31:16 48° WNW 02:31:16 48° WNW
ATLAS 2AS CENTAUR R/B 4.5 09:38:11 30° ESE 09:38:11 30° ESE 09:44:43 10° NE
CZ-4C R/B 3.9 10:26:54 25° E 10:26:54 25° E 10:30:38 10° NE
ATLAS 3B R/B 4.5 10:39:42 19° N 10:42:47 25° NE 10:48:28 10° E
Cosmos 1844 Rocket 4.5 10:56:45 10° SSE 11:01:32 30° ESE 11:06:23 10° NE
Lacrosse 5 2.9 11:09:02 36° NNE 11:09:02 36° NNE 11:12:08 10° NE
NOSS 3-4 (A) 3.9 11:10:47 45° N 11:10:47 45° N 11:15:23 10° NNE
NOSS 3-4 (C) 3.8 11:10:52 46° N 11:10:52 46° N 11:15:31 10° NNE
SJ 16-02 3.7 11:14:10 14° NNE 11:14:10 14° NNE 11:14:47 10° NNE
Cosmos 489 Rocket 4.3 11:11:14 75° WSW 11:11:14 75° WSW 11:17:31 10° S
NOSS 3-2 (C) 4.0 11:10:08 53° NW 11:12:20 78° WSW 11:21:00 10° SSE
OAO 2 Rocket 3.7 11:12:56 56° SSE 11:12:56 56° SSE 11:17:30 10° E
CENTAUR R/B 3.1 11:10:33 48° NW 11:13:19 77° WSW 11:22:12 10° SSE
Cosmos 1538 Rocket 4.4 11:15:12 50° S 11:15:12 50° S 11:19:05 10° S
Atlas Centaur 2 3.3 11:17:04 33° SSW 11:18:43 38° S 11:24:00 10° ESE
ADEOS 3.5 11:14:42 10° NNE 11:19:57 81° ESE 11:25:10 10° SSW
Cosmos 2263 Rocket 3.8 11:30:10 20° N 11:30:10 20° N 11:32:11 10° N
Cosmos 1408 Rocket 4.1 11:23:41 10° S 11:28:03 59° E 11:32:26 10° NNE
ATLAS 2AS CENTAUR R/B 3.0 11:25:45 40° WSW 11:28:40 62° NW 11:36:31 10° NNE
Milstar 3 Cent rocket 3.8 11:26:49 29° SW 11:30:12 44° S 11:42:24 10° ESE
Cosmos 1898 Rocket 3.9 11:25:55 10° S 11:31:09 65° ESE 11:36:26 10° NNE
COSMO-SKYMED 1 3.7 11:28:38 10° SE 11:32:43 42° ENE 11:36:48 10° N
Gbstr 26 Del rocket 4.2 11:33:44 26° NNE 11:33:57 26° NNE 11:37:17 10° E
BREEZE-M DEB (TANK) 4.1 11:36:44 26° NNE 11:36:44 26° NNE 11:38:36 10° NE
Lacrosse 4 Rocket 1.3 11:39:58 71° NW 11:40:24 81° WSW 11:44:49 10° SSE
Genesis I 3.0 11:44:54 75° NNW 11:44:54 75° NNW 11:48:32 10° NNE
CZ-4B R/B 3.6 11:40:24 10° NNE 11:44:51 61° E 11:49:08 10° S
Meteor 1-26 Rocket 4.1 11:39:11 10° N 11:44:57 84° W 11:50:30 10° S
CZ-4B R/B 3.1 11:44:16 10° S 11:45:33 22° S 11:45:33 22° S
Cosmos 1937 Rocket 3.8 11:42:44 10° S 11:47:48 65° ESE 11:52:56 10° NNE
FENGYUN 3A 3.8 11:42:38 10° N 11:47:49 49° WNW 11:52:59 10° SW
Cosmos 1461 4.0 11:54:25 31° SW 11:54:25 31° SW 11:57:51 10° S
SAR-Lupe-1 4.2 11:51:34 10° SSE 11:55:06 70° ENE 11:57:24 21° N
